Regional Weather Roundup
Issued by NWS

Home | Current Version | Previous Version | Graphics & Text | Print | Product List | Glossary On
Versions: 1 2 3 4 5 6 7 8 9 10 11 12 13 14 15 16 17 18 19 20 21 22 23 24 25 26 27 28 29 30 31 32 33 34 35 36 37 38 39 40 41 42 43 44 45 46 47 48 49 50
000
ASUS45 KCYS 110610
RWRWY

WYOMING REGIONAL WEATHER ROUNDUP
NATIONAL WEATHER SERVICE CHEYENNE WY
1100 PM MST SAT DEC 10 2016

NOTE:  "FAIR" INDICATES FEW OR NO CLOUDS BELOW 12,000 FEET
WITH NO SIGNIFICANT WEATHER AND/OR OBSTRUCTIONS TO VISIBILITY.

WYZ001-110700-
YELLOWSTONE NATIONAL PARK

CITY           SKY/WX    TMP DP  RH WIND       PRES   REMARKS
LK YELLOWSTONE   N/A     15  11  83 W6        29.76R WCI   6
6HR MIN TEMP:  15; 6HR MAX TEMP:  26; 6HR PCP:  0.07;

W YELLOWSTONE  NOT AVBL

$$
WYZ002>013-054>058-071-098>099-110700-
NORTHERN WYOMING

CITY           SKY/WX    TMP DP  RH WIND       PRES   REMARKS
JACKSON        CLOUDY    30  25  80 W17G23    29.78R WCI  18
CODY           FAIR      19  17  92 NE6       29.75R WCI  11
GREYBULL       FAIR      21  13  71 E12       29.78R WCI   9
6HR MIN TEMP:  21; 6HR MAX TEMP:  34; 6HR PCP: TRACE;

WORLAND        CLOUDY    27  23  85 SE9       29.76R WCI  18
6HR MIN TEMP:  16; 6HR MAX TEMP:  28;

SHERIDAN       CLOUDY    31  18  58 VRB6      29.78R WCI  25
6HR MIN TEMP:  20; 6HR MAX TEMP:  33; 6HR PCP:  0.08;

BUFFALO        FAIR      28  18  66 N20       29.73R WCI  15
6HR MIN TEMP:  19; 6HR MAX TEMP:  34; 6HR PCP: TRACE;

GILLETTE       CLOUDY    24  20  84 W8        29.74R WCI  15
6HR MIN TEMP:  16; 6HR MAX TEMP:  25; 6HR PCP:  0.09;

HULETT         CLOUDY    23  19  86 S6        29.75R WCI  16
NEWCASTLE      FAIR      19  14  79 N12       29.74R WCI   7

$$
WYZ014>020-022>026-101>103-110700-
CENTRAL WYOMING

CITY           SKY/WX    TMP DP  RH WIND       PRES   REMARKS
BIG PINEY      FAIR      26  25  96 NW5       29.80S WCI  20
6HR MIN TEMP:  26; 6HR MAX TEMP:  35; 6HR PCP: TRACE;

PINEDALE       FAIR      25  21  86 MISG      29.80R
DUBOIS         FAIR      28  16  59 W23       29.69R WCI  14
LANDER         MOCLDY    30  24  78 CALM      29.73R
6HR MIN TEMP:  30; 6HR MAX TEMP:  42;

RIVERTON       FAIR      29  24  82 E8        29.72R WCI  21
6HR MIN TEMP:  28; 6HR MAX TEMP:  38;

CASPER         CLOUDY    30  24  78 E5        29.77R WCI  25
6HR MIN TEMP:  27; 6HR MAX TEMP:  40;

DOUGLAS        CLOUDY    32  21  64 NW7       29.78R WCI  26
6HR MIN TEMP:  30; 6HR MAX TEMP:  45;


$$
WYZ021-027>030-104>119-110700-
SOUTHERN WYOMING

CITY           SKY/WX    TMP DP  RH WIND       PRES   REMARKS
EVANSTON       LGT SNOW  29  26  89 SW8       29.87S FOG     WCI  21
6HR MIN TEMP:  29; 6HR MAX TEMP:  33; 6HR PCP:  0.04;

KEMMERER       LGT SNOW  28  28 100 SW12      29.84R WCI  18
FORT BRIDGER   LGT SNOW  31  31 100 SW7       29.89F WCI  24
ROCK SPRINGS   LGT SNOW  29  28  96 W14       29.86R FOG     WCI  18
6HR MIN TEMP:  29; 6HR MAX TEMP:  35; 6HR PCP:  0.06;

DIXON          LGT SNOW  33  32  96 W5        29.87R WCI  28
RAWLINS        CLOUDY    32  25  75 W16       29.79R WCI  21
6HR MIN TEMP:  32; 6HR MAX TEMP:  37; 6HR PCP: TRACE;

SARATOGA       LGT SNOW  32  32 100 NW13G23   29.82R WCI  22
LARAMIE        CLOUDY    31  24  75 NW15      29.75F WCI  20
6HR MIN TEMP:  31; 6HR MAX TEMP:  39; 6HR PCP: TRACE;

CHEYENNE       FAIR      37  28  70 NW15G26   29.74R WCI  28
6HR MIN TEMP:  37; 6HR MAX TEMP:  45;

TORRINGTON     FAIR      35  27  72 N23G37    29.71R WCI  23
6HR MIN TEMP:  28; 6HR MAX TEMP:  48;

PINE BLUFFS    CLOUDY    43  27  52 W21G31    29.70R

$$



USA.gov is the U.S. government's official web portal to all federal, state and local government web resources and services.